| time (UTC) | temp C | wind direction | speed KPH | gust KPH | rain 1hr cm | rain 24hr cm | rain mn cm | humidity % | barometer mb |
| 20260906063400 | 21 | 20 | 16.1 | 0.0 | 0.00 | 0.00 | 0.00 | 53 | 1019.0 |
| 20260906062022 | -17 | 0.0 | 0.0 | 0.00 | 0.00 | 0.00 | |||
| 20260906060359 | 21 | 20 | 16.1 | 0.0 | 0.00 | 0.00 | 0.00 | 53 | 1019.0 |
| 20260906054925 | 18 | 20 | 14.5 | 0.0 | 0.00 | 0.00 | 0.00 | 64 | 1018.0 |
| 20260906053359 | 18 | 20 | 14.5 | 0.0 | 0.00 | 0.00 | 0.00 | 64 | 1018.0 |
| 20260906051900 | 18 | 20 | 14.5 | 0.0 | 0.00 | 0.00 | 0.00 | 64 | 1018.0 |
| 20260906050522 | -17 | 0.0 | 0.0 | 0.00 | 0.00 | 0.00 | |||
| 20260906045022 | -17 | 0.0 | 0.0 | 0.00 | 0.00 | 0.00 | |||
| 20260906043511 | -17 | 0.0 | 0.0 | 0.00 | 0.00 | 0.00 | |||
| 20260906042023 | -17 | 0.0 | 0.0 | 0.00 | 0.00 | 0.00 | |||
| 20260906040419 | 17 | 20 | 14.5 | 0.0 | 0.00 | 0.00 | 0.00 | 68 | 1017.0 |
| 20260906034922 | -17 | 0.0 | 0.0 | 0.00 | 0.00 | 0.00 | |||
| 20260906033522 | -17 | 0.0 | 0.0 | 0.00 | 0.00 | 0.00 | |||
| 20260906032024 | -17 | 0.0 | 0.0 | 0.00 | 0.00 | 0.00 | |||
| 20260906030522 | -17 | 0.0 | 0.0 | 0.00 | 0.00 | 0.00 | |||
| 20260906024927 | 18 | 300 | 4.8 | 0.0 | 0.00 | 0.00 | 0.00 | 68 | 1016.0 |
| 20260906023400 | -17 | 0.0 | 0.0 | 0.00 | 0.00 | 0.00 | |||
| 20260906021906 | -17 | 0.0 | 0.0 | 0.00 | 0.00 | 0.00 | |||
| 20260906020401 | -17 | 0.0 | 0.0 | 0.00 | 0.00 | 0.00 | |||
| 20260906014901 | -17 | 0.0 | 0.0 | 0.00 | 0.00 | 0.00 | |||
| 20260906013523 | -17 | 0.0 | 0.0 | 0.00 | 0.00 | 0.00 | |||
| 20260906011859 | -17 | 0.0 | 0.0 | 0.00 | 0.00 | 0.00 | |||
| 20260906010359 | -17 | 0.0 | 0.0 | 0.00 | 0.00 | 0.00 | |||
| 20260906005022 | -17 | 0.0 | 0.0 | 0.00 | 0.00 | 0.00 | |||
| 20260906003532 | -17 | 0.0 | 0.0 | 0.00 | 0.00 | 0.00 | |||
| 20260906002023 | -17 | 0.0 | 0.0 | 0.00 | 0.00 | 0.00 | |||
| 20260906000513 | -17 | 0.0 | 0.0 | 0.00 | 0.00 | 0.00 | |||
| 20260905234910 | -17 | 0.0 | 0.0 | 0.00 | 0.00 | 0.00 | |||
| 20260905233359 | -17 | 0.0 | 0.0 | 0.00 | 0.00 | 0.00 | |||
| 20260905232025 | -17 | 0.0 | 0.0 | 0.00 | 0.00 | 0.00 | |||
| 20260905230432 | -17 | 0.0 | 0.0 | 0.00 | 0.00 | 0.00 | |||
| 20260905225024 | -17 | 0.0 | 0.0 | 0.00 | 0.00 | 0.00 | |||
| 20260905223413 | -17 | 0.0 | 0.0 | 0.00 | 0.00 | 0.00 | |||
| 20260905222009 | -17 | 0.0 | 0.0 | 0.00 | 0.00 | 0.00 | |||
| 20260905220522 | -17 | 0.0 | 0.0 | 0.00 | 0.00 | 0.00 | |||
| 20260905215021 | -17 | 0.0 | 0.0 | 0.00 | 0.00 | 0.00 | |||
| 20260905213400 | -17 | 0.0 | 0.0 | 0.00 | 0.00 | 0.00 | |||
| 20260905211856 | -17 | 0.0 | 0.0 | 0.00 | 0.00 | 0.00 | |||
| 20260905210400 | -17 | 0.0 | 0.0 | 0.00 | 0.00 | 0.00 | |||
| 20260905204910 | 23 | 250 | 11.3 | 0.0 | 0.00 | 0.00 | 0.00 | 41 | 1014.0 |
| 20260905203359 | 23 | 250 | 11.3 | 0.0 | 0.00 | 0.00 | 0.00 | 41 | 1014.0 |
| 20260905201859 | 23 | 250 | 11.3 | 0.0 | 0.00 | 0.00 | 0.00 | 41 | 1014.0 |
| 20260905200522 | -17 | 0.0 | 0.0 | 0.00 | 0.00 | 0.00 | |||
| 20260905195015 | -17 | 0.0 | 0.0 | 0.00 | 0.00 | 0.00 | |||
| 20260905193400 | 27 | 250 | 14.5 | 0.0 | 0.00 | 0.00 | 0.00 | 34 | 1014.0 |
| 20260905191929 | 27 | 250 | 14.5 | 0.0 | 0.00 | 0.00 | 0.00 | 34 | 1014.0 |
| 20260905190401 | -17 | 0.0 | 0.0 | 0.00 | 0.00 | 0.00 | |||
| 20260905184857 | 27 | 240 | 14.5 | 0.0 | 0.00 | 0.00 | 0.00 | 32 | 1014.0 |
| 20260905183405 | 27 | 240 | 14.5 | 0.0 | 0.00 | 0.00 | 0.00 | 32 | 1014.0 |
| 20260905181857 | 27 | 240 | 14.5 | 0.0 | 0.00 | 0.00 | 0.00 | 32 | 1014.0 |
| 20260905180356 | 27 | 240 | 14.5 | 0.0 | 0.00 | 0.00 | 0.00 | 32 | 1014.0 |
| 20260905174853 | 28 | 240 | 12.9 | 0.0 | 0.00 | 0.00 | 0.00 | 33 | 1014.0 |
| 20260905173359 | 28 | 240 | 12.9 | 0.0 | 0.00 | 0.00 | 0.00 | 33 | 1014.0 |
| 20260905171901 | 28 | 240 | 12.9 | 0.0 | 0.00 | 0.00 | 0.00 | 33 | 1014.0 |
| 20260905170400 | 28 | 240 | 12.9 | 0.0 | 0.00 | 0.00 | 0.00 | 33 | 1014.0 |
| 20260905164900 | 32 | 270 | 22.5 | 0.0 | 0.00 | 0.00 | 0.00 | 27 | 1014.0 |
| 20260905163401 | 32 | 270 | 22.5 | 0.0 | 0.00 | 0.00 | 0.00 | 27 | 1014.0 |
| 20260905161858 | 32 | 270 | 22.5 | 0.0 | 0.00 | 0.00 | 0.00 | 27 | 1014.0 |
| 20260905160400 | 32 | 270 | 22.5 | 0.0 | 0.00 | 0.00 | 0.00 | 27 | 1014.0 |
| 20260905154910 | 32 | 270 | 22.5 | 0.0 | 0.00 | 0.00 | 0.00 | 27 | 1014.0 |
| 20260905153359 | 32 | 270 | 22.5 | 0.0 | 0.00 | 0.00 | 0.00 | 27 | 1014.0 |
| 20260905151900 | 32 | 270 | 22.5 | 0.0 | 0.00 | 0.00 | 0.00 | 27 | 1014.0 |
| 20260905150400 | 32 | 270 | 22.5 | 0.0 | 0.00 | 0.00 | 0.00 | 27 | 1014.0 |
| 20260905144853 | 32 | 270 | 25.7 | 0.0 | 0.00 | 0.00 | 0.00 | 24 | 1014.0 |
| 20260905143359 | 32 | 270 | 25.7 | 0.0 | 0.00 | 0.00 | 0.00 | 24 | 1014.0 |
| 20260905141857 | 32 | 270 | 25.7 | 0.0 | 0.00 | 0.00 | 0.00 | 24 | 1014.0 |
| 20260905140356 | 32 | 270 | 25.7 | 0.0 | 0.00 | 0.00 | 0.00 | 24 | 1014.0 |
| 20260905135020 | -17 | 0.0 | 0.0 | 0.00 | 0.00 | 0.00 | |||
| 20260905133400 | 32 | 270 | 17.7 | 37.0 | 0.00 | 0.00 | 0.00 | 24 | 1014.0 |
| 20260905131902 | 32 | 270 | 17.7 | 37.0 | 0.00 | 0.00 | 0.00 | 24 | 1014.0 |
| 20260905130421 | 32 | 270 | 17.7 | 37.0 | 0.00 | 0.00 | 0.00 | 24 | 1014.0 |
| 20260905124854 | 32 | 270 | 25.7 | 0.0 | 0.00 | 0.00 | 0.00 | 26 | 1015.0 |
| 20260905123400 | 32 | 270 | 25.7 | 0.0 | 0.00 | 0.00 | 0.00 | 26 | 1015.0 |
| 20260905121927 | 32 | 270 | 25.7 | 0.0 | 0.00 | 0.00 | 0.00 | 26 | 1015.0 |
| 20260905120401 | 32 | 270 | 25.7 | 0.0 | 0.00 | 0.00 | 0.00 | 26 | 1015.0 |
| 20260905114900 | 31 | 270 | 25.7 | 0.0 | 0.00 | 0.00 | 0.00 | 29 | 1016.0 |
| 20260905113400 | 31 | 270 | 25.7 | 0.0 | 0.00 | 0.00 | 0.00 | 29 | 1016.0 |
| 20260905111918 | 31 | 270 | 25.7 | 0.0 | 0.00 | 0.00 | 0.00 | 29 | 1016.0 |
| 20260905110359 | 31 | 270 | 25.7 | 0.0 | 0.00 | 0.00 | 0.00 | 29 | 1016.0 |
| 20260905104900 | 31 | 270 | 25.7 | 0.0 | 0.00 | 0.00 | 0.00 | 29 | 1016.0 |
| 20260905103400 | 31 | 270 | 25.7 | 0.0 | 0.00 | 0.00 | 0.00 | 29 | 1016.0 |
| 20260905101859 | 31 | 270 | 25.7 | 0.0 | 0.00 | 0.00 | 0.00 | 29 | 1016.0 |
| 20260905100400 | 31 | 270 | 25.7 | 0.0 | 0.00 | 0.00 | 0.00 | 29 | 1016.0 |
| 20260905095022 | -17 | 0.0 | 0.0 | 0.00 | 0.00 | 0.00 | |||
| 20260905093359 | 28 | 250 | 22.5 | 0.0 | 0.00 | 0.00 | 0.00 | 35 | 1017.0 |
| 20260905091900 | 28 | 250 | 22.5 | 0.0 | 0.00 | 0.00 | 0.00 | 35 | 1017.0 |
| 20260905090400 | 28 | 250 | 22.5 | 0.0 | 0.00 | 0.00 | 0.00 | 35 | 1017.0 |
| 20260905084859 | 27 | 250 | 22.5 | 0.0 | 0.00 | 0.00 | 0.00 | 39 | 1017.0 |
| 20260905083400 | 27 | 250 | 22.5 | 0.0 | 0.00 | 0.00 | 0.00 | 39 | 1017.0 |
| 20260905081859 | 27 | 250 | 22.5 | 0.0 | 0.00 | 0.00 | 0.00 | 39 | 1017.0 |
| 20260905080400 | 27 | 250 | 22.5 | 0.0 | 0.00 | 0.00 | 0.00 | 39 | 1017.0 |
| 20260905074859 | -17 | 0.0 | 0.0 | 0.00 | 0.00 | 0.00 | |||
| 20260905073408 | -17 | 0.0 | 0.0 | 0.00 | 0.00 | 0.00 | |||
| 20260905071900 | -17 | 0.0 | 0.0 | 0.00 | 0.00 | 0.00 | |||
| 20260905070400 | -17 | 0.0 | 0.0 | 0.00 | 0.00 | 0.00 | |||
| 20260905064901 | -17 | 0.0 | 0.0 | 0.00 | 0.00 | 0.00 |